HISAKI (SPRINT-A)

Last updated on Thu Sep 10 2026 00:03:32 GMT+0000 (Coordinated Universal Time)

1 39253U 13049A 26252.38255821 .00000098 00000+0 45887-4 0 9992 2 39253 29.7189 151.9519 0136532 339.3378 20.1713 13.55550262642850
UTC large
Height (km)
Speed (km/s)
/
Latitude / Longitude
Inclination (degrees)
Orbital Period (minutes)
Azimuth
Elevation
Range (km)
Doppler Factor

Next 0 passes for location: London (51.5072 / 0.1276)

No passes found over London.
HISAKI (SPRINT-A)